Hourly Data Report for October 16, 2016

All times are specified in Local Standard Time (LST). Add 1 hour to adjust for Daylight Saving Time where and when it is observed.

ARVIAT A
NUNAVUT

61°05'38.000" N
94°04'18.000" W
10.40 m
2300427
71174
YEK

Download Data

Hourly Data (October 2016)
Hourly Data Report for October 16, 2016
Temp Definition
°C
Dew Point Temp Definition
°C
Rel Hum Definition
%
Wind Dir Definition
10's deg

Wind Spd Definition
km/h
Visibility Definition
km
Stn Press Definition
kPa
Hmdx Definition


Wind Chill Definition


Weather Definition


TIME
00:00 Legend Double Dagger -7.5 -8.4 93 35 26 4.8 101.48   -16 Snow
01:00 Legend Double Dagger -7.6 -8.4 94 36 24 16.1 101.51   -16 LegendNANA
02:00 Legend Double Dagger -7.7 -8.5 94 35 28 6.4 101.52   -16 Snow
03:00 Legend Double Dagger -7.6 -8.3 95 35 26 16.1 101.57   -16 Snow
04:00 Legend Double Dagger -7.7 -8.4 95 34 26 4.8 101.62   -16 Freezing Rain,Snow
05:00 Legend Double Dagger -7.7 -8.5 94 34 26 14.5 101.64   -16 Snow
06:00 Legend Double Dagger -7.7 -8.5 94 35 24 16.1 101.65   -16 Snow
07:00 Legend Double Dagger -8.0 -8.8 94 33 22 16.1 101.69   -16 LegendNANA
08:00 Legend Double Dagger -7.9 -8.7 94 34 18 16.1 101.72   -15 LegendNANA
09:00 Legend Double Dagger -7.4 -8.2 94 32 17 16.1 101.79   -14 LegendNANA
10:00 Legend Double Dagger -7.3 -8.2 93 31 17 16.1 101.82   -14 LegendNANA
11:00 Legend Double Dagger -7.2 -8.2 93 31 15 16.1 101.88   -13 LegendNANA
12:00 Legend Double Dagger -6.5 -7.6 92 29 13 16.1 101.90   -12 LegendNANA
13:00 Legend Double Dagger -5.8 -8.0 85 31 8 16.1 101.91   -10 LegendNANA
14:00 Legend Double Dagger -5.4 -8.2 81 31 5 16.1 101.93   -8 LegendNANA
15:00 Legend Double Dagger -4.8 -8.4 76 LegendMM 4 16.1 101.91   -7 LegendNANA
16:00 Legend Double Dagger -4.5 -8.5 74 17 4 16.1 101.89   -6 LegendNANA
17:00 Legend Double Dagger -4.6 -8.0 77 15 8 16.1 101.86   -8 LegendNANA
18:00 Legend Double Dagger -5.1 -8.0 80 13 8 16.1 101.84   -9 LegendNANA
19:00 Legend Double Dagger -3.7 -6.4 82 14 13 16.1 101.85   -9 LegendNANA
20:00 Legend Double Dagger -2.0 -5.3 78 15 21 16.1 101.83   -8 LegendNANA
21:00 Legend Double Dagger -2.0 -5.0 80 15 24 16.1 101.85   -8 LegendNANA
22:00 Legend Double Dagger -1.7 -4.7 80 14 18 16.1 101.82   -7 LegendNANA
23:00 Legend Double Dagger -1.4 -4.1 82 13 18 16.1 101.81   -7 LegendNANA

Notes on Data Quality.

Legend

  • E = Estimated
  • M = Missing
  • NA = Not Available
  • ‡ = Partner data that is not subject to review by the National Climate Archives
Date modified: